| time (UTC) | temp F | wind direction | speed knots | gust knots | rain 1hr in | rain 24hr in | rain mn in | humidity % | barometer mb |
| 20260905164556 | 77 | 253 | 0.9 | 3.5 | 0.00 | 0.00 | 0.00 | 58 | 1014.4 |
| 20260905163056 | 76 | 263 | 1.7 | 4.3 | 0.00 | 0.00 | 0.00 | 61 | 1014.3 |
| 20260905161558 | 76 | 236 | 0.9 | 3.5 | 0.00 | 0.00 | 0.00 | 59 | 1014.3 |
| 20260905160107 | 79 | 112 | 1.7 | 7.8 | 0.00 | 0.00 | 0.00 | 56 | 1014.3 |
| 20260905154620 | 76 | 87 | 0.9 | 3.5 | 0.00 | 0.00 | 0.00 | 65 | 1014.3 |
| 20260905153053 | 71 | 51 | 0.0 | 2.6 | 0.00 | 0.00 | 0.00 | 68 | 1014.2 |
| 20260905151601 | 74 | 55 | 0.9 | 2.6 | 0.00 | 0.00 | 0.00 | 65 | 1014.2 |
| 20260905150105 | 72 | 55 | 0.9 | 3.5 | 0.00 | 0.00 | 0.00 | 67 | 1014.0 |
| 20260905144556 | 73 | 0 | 0.0 | 1.7 | 0.00 | 0.00 | 0.00 | 66 | 1014.0 |
| 20260905143102 | 71 | 5 | 0.9 | 2.6 | 0.00 | 0.00 | 0.00 | 72 | 1013.9 |
| 20260905141557 | 69 | 5 | 0.0 | 1.7 | 0.00 | 0.00 | 0.00 | 78 | 1013.5 |
| 20260905140057 | 66 | 0 | 0.0 | 2.6 | 0.00 | 0.00 | 0.00 | 84 | 1013.5 |
| 20260905134602 | 62 | 5 | 0.9 | 3.5 | 0.00 | 0.00 | 0.00 | 86 | 1013.2 |
| 20260905133056 | 61 | 9 | 0.9 | 3.5 | 0.00 | 0.00 | 0.00 | 86 | 1012.9 |
| 20260905131555 | 61 | 352 | 0.9 | 3.5 | 0.00 | 0.00 | 0.00 | 86 | 1012.9 |
| 20260905130101 | 61 | 348 | 0.9 | 3.5 | 0.00 | 0.00 | 0.00 | 86 | 1013.0 |
| 20260905124558 | 61 | 360 | 0.9 | 2.6 | 0.00 | 0.00 | 0.00 | 86 | 1013.1 |
| 20260905123056 | 62 | 5 | 0.9 | 3.5 | 0.00 | 0.00 | 0.00 | 86 | 1013.1 |
| 20260905121600 | 62 | 15 | 1.7 | 3.5 | 0.00 | 0.00 | 0.00 | 86 | 1013.1 |
| 20260905120059 | 62 | 12 | 0.9 | 2.6 | 0.00 | 0.00 | 0.00 | 86 | 1013.1 |
| 20260905114607 | 62 | 0 | 1.7 | 3.5 | 0.00 | 0.00 | 0.00 | 86 | 1013.0 |
| 20260905113054 | 62 | 5 | 0.0 | 2.6 | 0.00 | 0.00 | 0.00 | 86 | 1013.1 |
| 20260905111622 | 62 | 0 | 0.0 | 2.6 | 0.00 | 0.00 | 0.00 | 86 | 1013.2 |
| 20260905110106 | 62 | 360 | 0.9 | 2.6 | 0.00 | 0.00 | 0.00 | 86 | 1013.3 |
| 20260905104619 | 62 | 343 | 0.0 | 3.5 | 0.00 | 0.00 | 0.00 | 86 | 1013.3 |
| 20260905103056 | 62 | 338 | 0.0 | 1.7 | 0.00 | 0.00 | 0.00 | 86 | 1013.3 |
| 20260905101554 | 63 | 338 | 0.9 | 2.6 | 0.00 | 0.00 | 0.00 | 86 | 1013.3 |
| 20260905100056 | 63 | 323 | 0.9 | 2.6 | 0.00 | 0.00 | 0.00 | 86 | 1013.4 |
| 20260905094715 | 63 | 0 | 0.0 | 1.7 | 0.00 | 0.00 | 0.00 | 86 | 1013.4 |
| 20260905093126 | 63 | 0 | 0.9 | 1.7 | 0.00 | 0.00 | 0.00 | 86 | 1013.4 |
| 20260905091602 | 63 | 284 | 0.9 | 1.7 | 0.00 | 0.00 | 0.00 | 86 | 1013.5 |
| 20260905090052 | 63 | 0 | 0.0 | 1.7 | 0.00 | 0.00 | 0.00 | 86 | 1013.5 |
| 20260905084605 | 64 | 284 | 0.9 | 2.6 | 0.00 | 0.00 | 0.00 | 86 | 1013.6 |
| 20260905083056 | 64 | 283 | 0.0 | 2.6 | 0.00 | 0.00 | 0.00 | 85 | 1013.8 |
| 20260905081557 | 64 | 259 | 0.9 | 1.7 | 0.00 | 0.00 | 0.00 | 86 | 1014.0 |
| 20260905080107 | 64 | 259 | 0.0 | 0.9 | 0.00 | 0.00 | 0.00 | 86 | 1014.3 |
| 20260905074602 | 64 | 259 | 0.9 | 1.7 | 0.00 | 0.00 | 0.00 | 85 | 1014.2 |
| 20260905073110 | 65 | 0 | 0.0 | 1.7 | 0.00 | 0.00 | 0.00 | 85 | 1014.1 |
| 20260905071556 | 65 | 0 | 0.0 | 0.0 | 0.00 | 0.00 | 0.00 | 85 | 1014.3 |
| 20260905070057 | 65 | 0 | 0.0 | 0.9 | 0.00 | 0.00 | 0.00 | 85 | 1014.3 |
| 20260905064553 | 65 | 0 | 0.0 | 0.0 | 0.00 | 0.00 | 0.00 | 85 | 1014.3 |
| 20260905063058 | 65 | 0 | 0.0 | 0.0 | 0.00 | 0.00 | 0.00 | 85 | 1014.4 |
| 20260905061605 | 65 | 0 | 0.0 | 0.0 | 0.00 | 0.00 | 0.00 | 84 | 1014.2 |
| 20260905060107 | 65 | 0 | 0.0 | 0.9 | 0.00 | 0.00 | 0.00 | 84 | 1014.1 |
| 20260905054607 | 65 | 0 | 0.0 | 0.0 | 0.00 | 0.00 | 0.00 | 84 | 1014.1 |
| 20260905053101 | 65 | 0 | 0.0 | 0.0 | 0.00 | 0.00 | 0.00 | 84 | 1014.1 |
| 20260905051610 | 65 | 0 | 0.0 | 0.0 | 0.00 | 0.00 | 0.00 | 83 | 1014.0 |
| 20260905050107 | 66 | 254 | 0.0 | 1.7 | 0.00 | 0.00 | 0.00 | 83 | 1014.2 |
| 20260905044604 | 66 | 0 | 0.0 | 0.9 | 0.00 | 0.00 | 0.00 | 83 | 1014.1 |
| 20260905043059 | 66 | 0 | 0.0 | 0.0 | 0.00 | 0.00 | 0.00 | 83 | 1013.9 |
| 20260905041610 | 66 | 0 | 0.0 | 0.0 | 0.00 | 0.00 | 0.00 | 82 | 1013.6 |
| 20260905040108 | 66 | 0 | 0.0 | 1.7 | 0.00 | 0.00 | 0.00 | 82 | 1013.6 |
| 20260905034606 | 66 | 0 | 0.0 | 1.7 | 0.00 | 0.00 | 0.00 | 81 | 1013.5 |
| 20260905033106 | 67 | 0 | 0.9 | 2.6 | 0.00 | 0.00 | 0.00 | 81 | 1013.3 |
| 20260905031554 | 67 | 253 | 0.9 | 3.5 | 0.00 | 0.00 | 0.00 | 80 | 1013.2 |
| 20260905030111 | 68 | 262 | 0.9 | 3.5 | 0.00 | 0.00 | 0.00 | 80 | 1013.0 |
| 20260905024606 | 68 | 255 | 1.7 | 3.5 | 0.00 | 0.00 | 0.00 | 79 | 1012.9 |
| 20260905023058 | 68 | 261 | 1.7 | 4.3 | 0.00 | 0.00 | 0.00 | 78 | 1012.9 |
| 20260905021603 | 69 | 259 | 1.7 | 4.3 | 0.00 | 0.00 | 0.00 | 77 | 1013.0 |
| 20260905020059 | 69 | 250 | 1.7 | 3.5 | 0.00 | 0.00 | 0.00 | 76 | 1013.0 |
| 20260905014557 | 70 | 274 | 2.6 | 6.1 | 0.00 | 0.00 | 0.00 | 75 | 1012.7 |
| 20260905013116 | 71 | 360 | 2.6 | 7.0 | 0.00 | 0.00 | 0.00 | 72 | 1012.7 |
| 20260905011606 | 72 | 0 | 2.6 | 7.8 | 0.00 | 0.00 | 0.00 | 71 | 1012.8 |
| 20260905010106 | 75 | 247 | 2.6 | 7.8 | 0.00 | 0.00 | 0.00 | 69 | 1012.7 |
| 20260905004600 | 74 | 248 | 1.7 | 7.0 | 0.00 | 0.00 | 0.00 | 69 | 1013.0 |
| 20260905003101 | 74 | 229 | 3.5 | 7.8 | 0.00 | 0.00 | 0.00 | 69 | 1013.1 |
| 20260905001553 | 73 | 269 | 5.2 | 8.7 | 0.00 | 0.00 | 0.00 | 70 | 1013.1 |
| 20260905000059 | 75 | 250 | 3.5 | 9.6 | 0.00 | 0.00 | 0.00 | 69 | 1013.0 |
| 20260904234555 | 75 | 252 | 3.5 | 8.7 | 0.00 | 0.00 | 0.00 | 68 | 1013.1 |
| 20260904233055 | 75 | 251 | 4.3 | 7.8 | 0.00 | 0.00 | 0.00 | 69 | 1013.1 |
| 20260904231552 | 76 | 360 | 2.6 | 8.7 | 0.00 | 0.00 | 0.00 | 68 | 1013.1 |
| 20260904230108 | 75 | 224 | 4.3 | 11.3 | 0.00 | 0.00 | 0.00 | 68 | 1013.3 |
| 20260904224615 | 76 | 273 | 2.6 | 9.6 | 0.00 | 0.00 | 0.00 | 68 | 1013.3 |
| 20260904223107 | 75 | 231 | 6.1 | 10.4 | 0.00 | 0.00 | 0.00 | 66 | 1013.7 |
| 20260904221615 | 75 | 257 | 5.2 | 11.3 | 0.00 | 0.00 | 0.00 | 67 | 1013.6 |
| 20260904214555 | 75 | 221 | 5.2 | 11.3 | 0.00 | 0.00 | 0.00 | 66 | 1013.6 |
| 20260904213104 | 76 | 252 | 5.2 | 10.4 | 0.00 | 0.00 | 0.00 | 66 | 1013.9 |
| 20260904211558 | 76 | 250 | 4.3 | 9.6 | 0.00 | 0.00 | 0.00 | 67 | 1013.8 |
| 20260904210100 | 76 | 360 | 4.3 | 10.4 | 0.00 | 0.00 | 0.00 | 67 | 1014.0 |
| 20260904204604 | 76 | 244 | 4.3 | 12.2 | 0.00 | 0.00 | 0.00 | 67 | 1014.1 |
| 20260904203108 | 76 | 360 | 4.3 | 11.3 | 0.00 | 0.00 | 0.00 | 66 | 1014.0 |
| 20260904201616 | 76 | 234 | 4.3 | 10.4 | 0.00 | 0.00 | 0.00 | 67 | 1014.1 |
| 20260904200118 | 75 | 238 | 3.5 | 10.4 | 0.00 | 0.00 | 0.00 | 66 | 1014.0 |
| 20260904194604 | 75 | 231 | 5.2 | 9.6 | 0.00 | 0.00 | 0.00 | 66 | 1014.1 |
| 20260904193100 | 75 | 278 | 2.6 | 9.6 | 0.00 | 0.00 | 0.00 | 66 | 1014.1 |
| 20260904191602 | 75 | 227 | 4.3 | 8.7 | 0.00 | 0.00 | 0.00 | 65 | 1014.3 |
| 20260904184605 | 75 | 241 | 5.2 | 10.4 | 0.00 | 0.00 | 0.00 | 66 | 1014.7 |
| 20260904183057 | 75 | 259 | 3.5 | 9.6 | 0.00 | 0.00 | 0.00 | 67 | 1014.6 |
| 20260904181603 | 74 | 299 | 3.5 | 9.6 | 0.00 | 0.00 | 0.00 | 67 | 1014.6 |
| 20260904180100 | 75 | 229 | 1.7 | 8.7 | 0.00 | 0.00 | 0.00 | 66 | 1014.7 |
| 20260904174602 | 75 | 208 | 2.6 | 9.6 | 0.00 | 0.00 | 0.00 | 66 | 1014.8 |
| 20260904173053 | 74 | 266 | 2.6 | 7.8 | 0.00 | 0.00 | 0.00 | 67 | 1014.7 |
| 20260904171620 | 73 | 232 | 2.6 | 7.8 | 0.00 | 0.00 | 0.00 | 68 | 1014.9 |
| 20260904170059 | 73 | 234 | 4.3 | 7.8 | 0.00 | 0.00 | 0.00 | 68 | 1014.9 |